Weather History for North Adams, MA

Change the Weather History Date:

Friday, September 20, 2013

  Actual Average Record
Temperature  
Mean Temperature 61 °F -  
Max Temperature 80 °F 68 °F 82 °F (1998)
Min Temperature 43 °F 46 °F 36 °F (2004)
Degree Days  
Heating Degree Days 4    
Growing Degree Days 11 (Base 50)    
Moisture  
Dew Point 48 °F    
Average Humidity 74    
Maximum Humidity 93    
Minimum Humidity 35    
Precipitation  
Precipitation 0.00 in - - ()
Sea Level Pressure  
Sea Level Pressure 30.05 in    
Wind  
Wind Speed 1 mph (SE)    
Max Wind Speed 9 mph    
Max Gust Speed -    
Visibility 10 miles    
Events      
Averages and records for this station are not official NWS values.
T = Trace of Precipitation, MM = Missing Value Source: NWS Daily Summary

Daily Weather History Graph

Daily Weather History Graph

Search for Another Location

Airport:

Trip Planner

Search our weather history database for the weather conditions in past years. The results will help you decide how hot, cold, wet, or windy it might be!

Date:

Astronomy

Sep. 20, 2013 Rise Set
Actual Time 6:38 AM EDT 6:53 PM EDT
Civil Twilight 6:09 AM EDT 7:21 PM EDT
Nautical Twilight 5:36 AM EDT 7:54 PM EDT
Astronomical Twilight 5:02 AM EDT 8:28 PM EDT
Moon 7:22 PM EDT (9/20) 7:52 AM EDT (9/20)
Length of Visible Light 13h 11m
Length of Day
12h 15m
Full, 98% of the Moon is Illuminated
Sep 20
Full
Sep 26
Last Quarter
Oct 4
New
Oct 11
First Quarter
Oct 18
Full

Hourly Weather History & Observations

Time (EDT) Temp. Windchill Dew Point Humidity Pressure Visibility Wind Dir Wind Speed Gust Speed Precip Events Conditions
12:52 AM 46.9 °F - 44.1 °F 90% 30.10 in 10.0 mi Calm Calm - N/A   Clear
1:52 AM 45.0 °F 43.5 °F 43.0 °F 93% 30.11 in 10.0 mi WSW 3.5 mph - N/A   Clear
2:52 AM 45.0 °F - 42.1 °F 90% 30.10 in 10.0 mi Calm Calm - N/A   Clear
3:20 AM 44.6 °F - 42.8 °F 93% 30.09 in 10.0 mi Calm Calm - N/A   Partly Cloudy
3:52 AM 44.1 °F - 42.1 °F 93% 30.10 in 6.0 mi Calm Calm - N/A   Clear
4:52 AM 44.1 °F - 42.1 °F 93% 30.09 in 9.0 mi Calm Calm - N/A   Clear
5:52 AM 44.1 °F - 42.1 °F 93% 30.10 in 10.0 mi Calm Calm - N/A   Clear
6:52 AM 43.0 °F - 41.0 °F 93% 30.12 in 9.0 mi Calm Calm - N/A   Clear
7:52 AM 46.9 °F - 45.0 °F 93% 30.12 in 10.0 mi Calm Calm - N/A   Clear
8:52 AM 52.0 °F - 48.0 °F 86% 30.12 in 10.0 mi Calm Calm - N/A   Clear
9:52 AM 59.0 °F - 48.9 °F 69% 30.11 in 10.0 mi Calm Calm - N/A   Clear
10:52 AM 64.9 °F - 52.0 °F 63% 30.10 in 10.0 mi Calm Calm - N/A   Clear
11:52 AM 71.1 °F - 50.0 °F 47% 30.07 in 10.0 mi Calm Calm - N/A   Clear
12:52 PM 75.9 °F - 46.0 °F 35% 30.04 in 10.0 mi Calm Calm - N/A   Clear
1:52 PM 77.0 °F - 48.0 °F 36% 30.01 in 10.0 mi Calm Calm - N/A   Clear
2:52 PM 79.0 °F - 51.1 °F 38% 29.99 in 10.0 mi Calm Calm - N/A   Clear
3:52 PM 78.1 °F - 53.1 °F 42% 29.98 in 10.0 mi ENE 5.8 mph - N/A   Clear
4:52 PM 77.0 °F - 51.1 °F 40% 29.98 in 10.0 mi SE 9.2 mph - N/A   Clear
5:52 PM 73.9 °F - 51.1 °F 45% 29.99 in 10.0 mi SE 9.2 mph - N/A   Clear
6:52 PM 63.0 °F - 55.9 °F 78% 29.99 in 10.0 mi East 5.8 mph - N/A   Clear
7:52 PM 62.1 °F - 54.0 °F 75% 30.00 in 10.0 mi Calm Calm - N/A   Clear
8:52 PM 59.0 °F - 54.0 °F 83% 29.99 in 10.0 mi Calm Calm - N/A   Clear
9:52 PM 55.9 °F - 53.1 °F 90% 30.00 in 10.0 mi Calm Calm - N/A   Clear
10:52 PM 53.1 °F - 51.1 °F 93% 30.01 in 10.0 mi Calm Calm - N/A   Clear
11:52 PM 55.9 °F - 52.0 °F 87% 29.99 in 10.0 mi SSE 4.6 mph - N/A   Clear